Find Starlink 2213

NORAD ID: 47780 Int'l Des: 2021-017 Owner: SPXS Country: US Constellation: starlink operational
LEOCIRCULAR

Live Position

Loading 3D Globe...

About Starlink 2213

Description loading...

Upcoming Passes

Passes for default location (London). Set your location on the main map for personalized predictions.

Altitude History

Loading altitude history...

Two-Line Element Set

1 47780U 21017BL 26104.83629706 .00005751 00000-0 19685-3 0 9991
2 47780 53.1592 35.8931 0001735 85.9001 274.2198 15.31717857283439
Epoch: Apr 14, 2026 • Age: 8 hours

Current Status

Altitude 482.8 km
Velocity 7.62 km/s
Sub-Earth Point -35.51°S, 103.48°E
Launch Date Mar 4, 2021
Age 5.1 years
Type internet

Technical Details

Classification Payload
Mass 260.00 kg
Dry Mass 248.00 kg
Total Mass 260.00 kg
Length 0.20 m
Diameter 2.80 m
Span 9.00 m
Shape Box + pan
Manufacturer SPXS
Bus Type Starlink
Phase Status In Orbit
Owner/State SPXS/US

Most Searched